User: anonymous   Login
Location: Carri�res
(48.9069°N, 2.1792°E)
Time: 03:38:55
(UTC+00:00)
Language:

ERS-2 - Orbit

View from above orbital plane
View from above orbital plane
View from above satellite
View from above satellite

Ground track
Ground track

The orbit data is extracted from the following two-line orbital elements,

1 23560U 95021A   21106.61126215  .00000867  00000-0  39754-4 0  9990
2 23560  98.5539 308.1451 0002795 199.2775 160.8353 15.23820303388307
Epoch (UTC): 16 April 2021 14:40:13
Eccentricity: 0.0002795
inclination: 98.5539°
perigee height: 492 km
apogee height: 496 km
right ascension of ascending node: 308.1451°
argument of perigee: 199.2775°
revolutions per day: 15.23820303
mean anomaly at epoch: 160.8353°
orbit number at epoch: 38830

The dashed part of the orbit path shows where the satellite is in the earth's shadow,  

DLR